WMKJWMKM

Guest
Details From WMKJ - Senai Intl - Sultan Ismail
To WMKM - Malacca
Flight Number -
Tags decoded
Created
Modified
Stats Distance 94 nm / 174 km
Max Altitude 0 ft / 0 m
Waypoints 4
Social Downloads 0
Likes 0
Share VATSIM

Download

Looking for another format? Having issues loading an existing format? Contact us
Advertisement - Login to hide

Notes

Requested: WMKJ A457 GUPTA W535 VMK WMKM

Route

WMKJ GUPTA W535 VMK WMKM

ID Type Via Altitude (ft/m) Position (lat/lon) Dist (leg/tot) Name
O WMKJ APT - 0 / 0 1.64056 / 103.67000 - / 0 nm Senai Intl - Sultan Ismail
GUPTA FIX - 0 / 0 2.16333 / 102.64200 69 / 69 nm
VMK VOR W535 (AWY-HI) 0 / 0 2.25639 / 102.25100 24 / 93 nm MALACCA
O WMKM APT - 0 / 0 2.26336 / 102.25200 0 / 93 nm Malacca

Altitude Profile

Advertisement - Login to hide

WMKJ

Details ICAO WMKJ (JHB)
Name Senai Intl - Sultan Ismail
Region Malaysia (Peninsular Malaysia)
Timezone Asia/Kuala_Lumpur (UTC+8.0)
Stats Elevation 133 ft / 41 m (AMSL)
Location 1.640560° 103.670000°
Runways 1
Magnetic Variation 0.190° E

METAR

WMKJ 220600Z 21005KT 120V280 6000 -TSRA FEW016CB SCT018 BKN280 30/27 Q1006

Decode

TAF

TAF AMD WMKJ 220617Z 2206/2306 VRB02KT 9999 FEW018 TEMPO 2206/2210 22007KT 3000 TSRA FEW008 FEW016CB SCT018 BECMG 2212/2214 8000 FEW017CB BECMG 2219/2220 4000 BR FEW006 BECMG 2300/2302 16005KT 9999 NSW FEW018

Decode

Departure Runways

ID Width Length Bearing (true/mag) Surface Threshold Overrun Markings Lighting
16 150 ft / 46 m 12,602 ft / 3,841 m 160.01° / 159.82° ASPHALT 0 ft / 0 m 0 ft / 0 m PREC-APP CENTERLINE EDGE THRESHOLD
34 150 ft / 46 m 12,602 ft / 3,841 m 340.01° / 339.82° ASPHALT 0 ft / 0 m 0 ft / 0 m PREC-APP CENTERLINE EDGE THRESHOLD

WMKM

Details ICAO WMKM (MKZ)
Name Malacca
Region Malaysia (Peninsular Malaysia)
Timezone Asia/Kuala_Lumpur (UTC+8.0)
Stats Elevation 35 ft / 11 m (AMSL)
Location 2.263360° 102.252000°
Runways 1
Magnetic Variation 0.071° E

METAR

WMKM 220600Z VRB04KT 9999 -SHRA FEW017CB SCT020 BKN260 30/25 Q1007

Decode

TAF

TAF WMKM 220500Z 2206/2306 13005KT 9999 FEW020 TEMPO 2207/2211 20005KT 4000 TSRA FEW010 FEW017CB SCT020 BECMG 2212/2214 VRB02KT FEW027 BECMG 2220/2222 4000 HZ FEW010 BECMG 2301/2303 9999 NSW FEW020

Decode

Destination Runways

ID Width Length Bearing (true/mag) Surface Threshold Overrun Markings Lighting
03 121 ft / 37 m 4,523 ft / 1,379 m 29.93° / 29.86° ASPHALT 0 ft / 0 m 200 ft / 61 m APP EDGE THRESHOLD
21 121 ft / 37 m 4,523 ft / 1,379 m 209.93° / 209.86° ASPHALT 0 ft / 0 m 200 ft / 61 m APP EDGE THRESHOLD

Popular Alternatives